Regional Weather Roundup
Issued by NWS

Home | Current Version | Previous Version | Text Only | Print | Product List | Glossary On
Versions: 1 2 3 4 5 6 7 8 9 10 11 12 13 14 15 16 17 18 19 20 21 22 23 24 25 26 27 28 29 30 31 32 33 34 35 36 37 38 39 40 41 42 43 44 45 46 47 48 49 50
000
ASUS42 KFFC 040703
RWRGA
WEATHER ROUNDUP FOR GEORGIA
NATIONAL WEATHER SERVICE PEACHTREE CITY GA
300 AM EDT MON MAY 04 2015

NOTE: "FAIR" INDICATES FEW OR NO CLOUDS BELOW 12,000 FEET WITH NO
SIGNIFICANT WEATHER AND/OR OBSTRUCTIONS TO VISIBILITY.

* = USE WITH CAUTION. THE STATIONS MARKED WITH AN ASTERISK MAY NOT
REPORT WEATHER SUCH AS PRECIPITATION, FOG, OR THUNDER AND ARE NOT
QUALITY CONTROLLED BY NWS.

THE REMARK "TC" DENOTES TEMPERATURE READING IN DEGREES CELSIUS.

GAZ001>058-040800-
NORTH GEORGIA

CITY           SKY/WX    TMP DP  RH WIND       PRES   REMARKS
ATLANTA        PTCLDY    64  50  60 CALM      30.20S
ATHENS         CLEAR     56  52  86 CALM      30.20S
CHAMBLEE       CLEAR     57  51  80 CALM      30.20S
PEACHTREE CITY CLEAR     53  51  93 CALM      30.21S
ROME           CLEAR     58  51  78 CALM      30.18S
WEST ATLANTA   PTCLDY    54  52  93 CALM      30.20S
GAINESVILLE    CLEAR     60  49  66 CALM      30.22F
CARTERSVILLE   CLEAR     50  48  93 CALM      30.20S


CITY           SKY/WX    TMP DP  RH WIND       PRES   REMARKS
DALTON*        CLEAR     52  52 100 CALM      30.19S
MARIETTA       PTCLDY    58  52  81 CALM      30.19F
BLAIRSVILLE*     N/A     48  42  78 CALM      30.23F
$$

GAZ059>098-102>109-040800-
CENTRAL GEORGIA

CITY           SKY/WX    TMP DP  RH WIND       PRES   REMARKS
AUGUSTA-BUSH   CLEAR     53  52  96 CALM      30.21F
AUGUSTA-DANIEL CLEAR     65  49  56 S6        30.22F
COLUMBUS       PTCLDY    63  53  70 CALM      30.18F
MACON          CLEAR     56  51  84 CALM      30.20F
ROBINS AFB     CLEAR     59  54  84 SE5       30.20S


CITY           SKY/WX    TMP DP  RH WIND       PRES   REMARKS
LAGRANGE*      PTCLDY    57  56  95 CALM      30.19F
SYLVANIA*      CLEAR     55  55  97 CALM      30.23S
MILLEDGEVILLE* CLEAR     55  55 100 CALM      30.21S
$$

GAZ099>101-110>166-040800-
SOUTH GEORGIA

CITY           SKY/WX    TMP DP  RH WIND       PRES   REMARKS
SAVANNAH       CLEAR     58  55  90 CALM      30.22F
VALDOSTA       CLEAR     56  54  93 CALM      30.20S
ALMA           CLEAR     54  52  93 CALM      30.21S
ST SIMONS      CLEAR     61  57  87 CALM      30.21S
FT STEWART     CLEAR     55  52  89 CALM      30.20S
ALBANY         CLEAR     61  53  75 SW3       30.22S
HUNTER AFB     CLEAR     58  58  99 CALM      30.19F
MOODY AFB      CLEAR     58  52  79 CALM      30.19S
BRUNSWICK      CLEAR     55  52  88 CALM      30.22S


CITY           SKY/WX    TMP DP  RH WIND       PRES   REMARKS
BAINBRIDGE*    CLEAR     66  54  63 S6        30.20S
MOULTRIE*      CLEAR     59  54  82 CALM      30.21S
VIDALIA*       CLEAR     59  54  82 CALM      30.22S
WAYCROSS*      CLEAR     59  56  92 CALM      30.21S
DOUGLAS*       CLEAR     61  52  72 CALM      30.22S
$$


USA.gov is the U.S. government's official web portal to all federal, state and local government web resources and services.